Regional Weather Roundup
Issued by NWS

Home | Current Version | Previous Version | Text Only | Print | Product List | Glossary Off
Versions: 1 2 3 4 5 6 7 8 9 10 11 12 13 14 15 16 17 18 19 20 21 22 23 24 25 26 27 28 29 30 31 32 33 34 35 36 37 38 39 40 41 42 43 44 45 46 47 48 49 50

000
ASUS43 KMKX 190421
RWRWI

WISCONSIN REGIONAL WEATHER ROUNDUP
NATIONAL WEATHER SERVICE MILWAUKEE/SULLIVAN WI
1100 PM CDT MON SEP 18 2017

NOTE: "FAIR" INDICATES FEW OR NO CLOUDS BELOW 12,000 FEET WITH NO
SIGNIFICANT WEATHER AND/OR OBSTRUCTIONS TO VISIBILITY.

WIZ001-002-006>008-014>016-023>028-190500-
NORTHWEST WISCONSIN

CITY           SKY/WX    TMP DP  RH WIND       PRES   REMARKS
SUPERIOR ARPT  CLOUDY    55  52  90 CALM      30.01S
ASHLAND        CLOUDY    55  52  89 E3        30.03S
HAYWARD        CLOUDY    56  52  86 CALM      30.02R
SIREN          CLOUDY    56  53  88 CALM      30.00R
CUMBERLAND     CLOUDY    54  52  94 SE5       30.01R
RICE LAKE      CLOUDY    56  54  92 SE3       30.02S
CHETEK         CLOUDY    56  55  95 CALM      30.01S
LADYSMITH      CLOUDY    58  56  95 E6        30.03F
EAU CLAIRE     CLOUDY    57  55  93 NE3       29.99S
MENOMONIE      CLOUDY    57  55  95 CALM      30.00S
NEW RICHMOND   CLOUDY    57  54  88 SE5       29.99S
OSCEOLA        CLOUDY    58  58 100 SE6       30.01S
$$

WIZ003>005-009-010-017-018-190500-
NORTH CENTRAL WISCONSIN

CITY           SKY/WX    TMP DP  RH WIND       PRES   REMARKS
MANITOWISH WTR CLOUDY    55  55 100 SE6       30.06R
ARBOR VITAE    CLOUDY    57  55  95 E5        30.06S
WOODRUFF       CLOUDY    57  55  95 E5        30.06S
RHINELANDER    CLOUDY    56  55  97 E7        30.06F
EAGLE RIVER    CLOUDY    56  56 100 E5        30.07S
LAND O LAKES   CLOUDY    55  53  95 SE3       30.09S
PHILLIPS       CLOUDY    55  55 100 E5        30.04S
TOMAHAWK         N/A     55  54  94 CALM      30.06S
MEDFORD        CLOUDY    56  55  97 E5        30.03R
MERRILL        CLOUDY    57  57 100 CALM      30.05S
$$

WIZ029-030-035-036-043>047-190500-
CENTRAL WISCONSIN

CITY           SKY/WX    TMP DP  RH WIND       PRES   REMARKS
WAUSAU         CLOUDY    58  55  90 E6        30.02R
MOSINEE        CLOUDY    55  55 100 E6        30.03F
MARSHFIELD     CLOUDY    59  55  87 SE5       30.01S
STEVENS POINT  CLOUDY    58  54  86 E7        30.03S
WAUPACA        MOCLDY    61  53  74 E5        30.03S
WAUTOMA        CLOUDY    60  54  80 CALM      30.03S
WISC RAPIDS    CLOUDY    62  55  77 SE6       30.03R
CAMP DOUGLAS   CLOUDY    63  55  77 E8        30.00R
$$

WIZ011>013-019>022-031-037>040-048>050-190500-
NORTHEAST WISCONSIN

CITY           SKY/WX    TMP DP  RH WIND       PRES   REMARKS
ANTIGO         CLOUDY    55  55  98 E6        30.05F
SHAWANO        CLOUDY    60  53  77 CALM      30.05R
OCONTO         PTCLDY    56  53  89 CALM      30.04S
STURGEON BAY   MOCLDY    59  51  75 E3        30.05S
GREEN BAY      CLOUDY    58  54  86 NW5       30.05R
MANITOWOC      CLOUDY    57  54  89 CALM      30.03F
APPLETON       MOCLDY    61  48  63 NE6       30.03R
CLINTONVILLE   CLOUDY    59  52  77 CALM      30.04S
OSHKOSH        CLOUDY    62  54  74 E7        30.01F
$$

WIZ032>034-041-042-053>061-190500-
SOUTHWEST WISCONSIN

CITY           SKY/WX    TMP DP  RH WIND       PRES   REMARKS
LA CROSSE      MOCLDY    60  58  92 CALM      29.98S
SPARTA         CLOUDY    58  57  99 CALM      30.00R
VIROQUA        CLOUDY    60  60  99 E5        30.00S
BOSCOBEL       CLOUDY    64  58  80 CALM      29.99R
PRAIRIE DU CHI CLOUDY    63  56  80 CALM      29.97S
PLATTEVILLE    CLOUDY    65  58  75 E6        30.00R
$$

WIZ056-057-062-063-064-067-068-190500-
SOUTH CENTRAL WISCONSIN

CITY           SKY/WX    TMP DP  RH WIND       PRES   REMARKS
REEDSBURG      CLOUDY    63  54  74 E3        30.00R
BARABOO/DELLS  CLOUDY    62  50  65 E5        30.02R
LONE ROCK      CLOUDY    64  60  87 E7        29.99R
MINERAL POINT  LGT RAIN  66  59  77 E7        30.00S
MADISON        CLOUDY    61  54  77 E7        30.00S
MIDDLETON      CLOUDY    64  54  68 SE7       30.01S
WATERTOWN      CLOUDY    59  57  93 CALM      30.01F
MONROE         CLOUDY    63  52  67 E7        29.99F
JANESVILLE     CLOUDY    63  55  77 NE5       29.99F
$$

WIZ051-052-058>065-066-070>072-190500-
SOUTHEAST WISCONSIN

CITY           SKY/WX    TMP DP  RH WIND       PRES   REMARKS
MILWAUKEE      CLOUDY    64  59  83 NE7       30.01F
WAUKESHA       CLOUDY    59  54  82 E5        30.02F
MILWAUKEE/TIMM CLOUDY    59  52  77 CALM      30.03F
RACINE         MOCLDY    62  59  90 NE3       30.02F
BURLINGTON     PTCLDY    61  59  92 CALM      30.01F
KENOSHA        CLOUDY    62  58  86 NE6       30.01F
FOND DU LAC    CLOUDY    61  52  72 E5        30.01F
SHEBOYGAN      MOCLDY    56  55  97 E6        30.02F
WEST BEND        N/A     55  54  94 CALM      30.03F
JUNEAU         CLOUDY    58  54  84 E5        30.02S
$$

LSZ147-162-190500-
LAKE SUPERIOR

STATION/POSITION TIME  TEMP    WIND        PRES    WAVE
                       AIR SEA DIR/SP/G            HT/PER
                 (UTC) (F)     (DEG/KT/KT) (MB)    (FT/S)
W MID LAKE BUOY  0350   56 54  160/  8/ 10 1017.6R   1/ 4
DEVILS ISLAND    0400   58     130/  7/  9 1017.0S
SAXON HARBOR     0230   56      CALM  /  1 1016.3F
$$

LMZ867-665-643>646-190500-
LAKE MICHIGAN

STATION/POSITION TIME  TEMP    WIND        PRES    WAVE
                       AIR SEA DIR/SP/G            HT/PER
                 (UTC) (F)     (DEG/KT/KT) (MB)    (FT/S)
S GREEN BAY BUOY 0400   63 66  100/ 10/ 12 1016.8
N MID LAKE BUOY  0350   64 65  110/ 12/ 14 1018.1F   1
NORTHPORT PIER   0340   64      90/ 13/ 14 1017.3S
KEWAUNEE LAKESHO 0354   58      30/  2/  3 1016.0F
SHEBOYGAN LAKESH 0400   60     320/  4/  4 1016.5F
PORT WASHINGTON  0330   61     320/  6/  9 1017.9R
ATWATER BUOY     0309   66 67   60/  8/ 10 1016.8F
MILWAUKEE LAKESH 0400   65      50/ 10/ 11   N/A
S MID LAKE BUOY  0350   67 68   50/  6/  8 1016.2F   2/ 4
KENOSHA   LAKESH 0400   66      60/  9/ 10 1015.9
$$

TC  - TEMPERATURE IN CELSIUS
VSB - VISIBILITY IN STATUTE MILES
WCI - WIND CHILL INDEX
HX  - HEAT INDEX





USA.gov is the U.S. government's official web portal to all federal, state and local government web resources and services.